FIN4B EFHK-EFOU

Flight info

Callsign FIN4B
Flight time 0h 54m
Altitude 38000
Route TEVRU Y75 SUVIB
Aircraft A319/M-SDE3FGHIRWY/LB1

Departure

Time 2026-04-20 22:16
Airport Helsinki Vantaa Airport (EFHK)

Arrival

Time 2026-04-20 23:10
Airport Oulu Airport (EFOU)
Time Latitude Longitude Altitude Speed Heading
2026-04-20 20:56 60.31905 24.96624 163 ft 0 kts 137°
2026-04-20 22:02 60.31906 24.96621 163 ft 2 kts 138°
2026-04-20 22:02 60.31927 24.96590 163 ft 4 kts 156°
2026-04-20 22:02 60.31952 24.96578 163 ft 4 kts 188°
2026-04-20 22:03 60.31977 24.96596 163 ft 4 kts 220°
2026-04-20 22:03 60.31987 24.96615 163 ft 0 kts 228°
2026-04-20 22:07 60.31978 24.96595 163 ft 3 kts 228°
2026-04-20 22:07 60.31959 24.96553 163 ft 5 kts 228°
2026-04-20 22:07 60.31921 24.96467 163 ft 11 kts 227°
2026-04-20 22:08 60.31864 24.96335 163 ft 13 kts 237°
2026-04-20 22:08 60.31863 24.96155 164 ft 13 kts 295°
2026-04-20 22:08 60.31923 24.96039 168 ft 11 kts 319°
2026-04-20 22:08 60.31908 24.95912 168 ft 12 kts 226°
2026-04-20 22:09 60.31847 24.95778 169 ft 13 kts 228°
2026-04-20 22:09 60.31782 24.95632 169 ft 15 kts 228°
2026-04-20 22:09 60.31710 24.95476 170 ft 16 kts 227°
2026-04-20 22:09 60.31629 24.95297 168 ft 18 kts 227°
2026-04-20 22:10 60.31540 24.95104 168 ft 19 kts 226°
2026-04-20 22:10 60.31445 24.94894 166 ft 21 kts 228°
2026-04-20 22:10 60.31432 24.94669 163 ft 19 kts 316°
2026-04-20 22:10 60.31505 24.94514 164 ft 9 kts 332°
2026-04-20 22:11 60.31544 24.94550 166 ft 0 kts 46°
2026-04-20 22:15 60.31548 24.94560 166 ft 12 kts 46°
2026-04-20 22:16 60.31809 24.95131 174 ft 95 kts 47°
2026-04-20 22:16 60.32414 24.96450 239 ft 152 kts 46°
2026-04-20 22:16 60.33119 24.98009 958 ft 149 kts 47°
2026-04-20 22:16 60.33821 24.99554 1657 ft 155 kts 46°
2026-04-20 22:17 60.34438 25.00400 1925 ft 173 kts 22°
2026-04-20 22:17 60.35731 25.00670 2310 ft 200 kts
2026-04-20 22:17 60.37193 25.00689 2790 ft 222 kts
2026-04-20 22:17 60.38768 25.00683 3595 ft 229 kts
2026-04-20 22:18 60.40387 25.00670 4405 ft 236 kts
2026-04-20 22:18 60.41942 25.00660 5095 ft 251 kts
2026-04-20 22:18 60.42360 25.00658 5329 ft 251 kts
2026-04-20 22:18 60.44133 25.00652 6314 ft 257 kts
2026-04-20 22:19 60.45938 25.00656 7306 ft 261 kts
2026-04-20 22:19 60.47764 25.00665 8294 ft 264 kts
2026-04-20 22:19 60.49611 25.00687 9311 ft 266 kts
2026-04-20 22:19 60.51468 25.00844 10304 ft 268 kts
2026-04-20 22:20 60.53382 25.01107 10841 ft 287 kts
2026-04-20 22:20 60.55444 25.01431 11347 ft 304 kts
2026-04-20 22:20 60.57569 25.01765 12157 ft 309 kts
2026-04-20 22:20 60.59729 25.02093 13028 ft 313 kts
2026-04-20 22:21 60.61914 25.02415 13906 ft 317 kts
2026-04-20 22:21 60.64122 25.02735 14681 ft 320 kts
2026-04-20 22:21 60.66362 25.03051 15439 ft 323 kts
2026-04-20 22:21 60.68615 25.03368 16214 ft 326 kts
2026-04-20 22:22 60.70890 25.03687 16971 ft 329 kts
2026-04-20 22:22 60.73185 25.04011 17727 ft 332 kts
2026-04-20 22:22 60.75502 25.04339 18483 ft 335 kts
2026-04-20 22:22 60.77843 25.04672 19147 ft 338 kts
2026-04-20 22:23 60.80198 25.05006 19802 ft 341 kts
2026-04-20 22:23 60.82574 25.05340 20462 ft 343 kts
2026-04-20 22:23 60.84964 25.05675 21121 ft 346 kts
2026-04-20 22:23 60.87379 25.06019 21793 ft 349 kts
2026-04-20 22:24 60.89806 25.06369 22440 ft 351 kts
2026-04-20 22:24 60.92253 25.06727 23098 ft 354 kts
2026-04-20 22:24 60.94716 25.07087 23754 ft 357 kts
2026-04-20 22:24 60.97199 25.07450 24293 ft 359 kts
2026-04-20 22:25 60.99705 25.07817 24802 ft 362 kts
2026-04-20 22:25 61.02229 25.08185 25298 ft 365 kts
2026-04-20 22:25 61.04775 25.08556 25791 ft 368 kts
2026-04-20 22:25 61.07341 25.08931 26270 ft 371 kts
2026-04-20 22:26 61.09926 25.09310 26740 ft 374 kts
2026-04-20 22:26 61.12500 25.09687 27209 ft 377 kts
2026-04-20 22:26 61.15127 25.10068 27667 ft 380 kts
2026-04-20 22:27 61.20439 25.10843 28579 ft 386 kts
2026-04-20 22:27 61.23131 25.11241 29026 ft 389 kts
2026-04-20 22:27 61.25838 25.11640 29468 ft 392 kts
2026-04-20 22:27 61.28568 25.12036 29906 ft 395 kts
2026-04-20 22:28 61.31319 25.12434 30327 ft 398 kts
2026-04-20 22:28 61.34092 25.12843 30683 ft 401 kts
2026-04-20 22:28 61.36882 25.13258 31027 ft 403 kts
2026-04-20 22:28 61.39687 25.13674 31376 ft 406 kts
2026-04-20 22:29 61.42511 25.14092 31707 ft 408 kts
2026-04-20 22:29 61.45354 25.14515 32046 ft 411 kts
2026-04-20 22:29 61.48203 25.14936 32513 ft 410 kts
2026-04-20 22:29 61.51039 25.15356 32997 ft 409 kts
2026-04-20 22:30 61.53876 25.15782 33469 ft 408 kts
2026-04-20 22:30 61.56704 25.16211 33934 ft 407 kts
2026-04-20 22:30 61.59524 25.16639 34390 ft 407 kts
2026-04-20 22:30 61.62348 25.17067 34768 ft 407 kts
2026-04-20 22:31 61.65173 25.17493 35112 ft 407 kts
2026-04-20 22:31 61.68002 25.17918 35419 ft 408 kts
2026-04-20 22:31 61.70836 25.18342 35718 ft 409 kts
2026-04-20 22:31 61.73677 25.18769 36012 ft 410 kts
2026-04-20 22:32 61.76525 25.19202 36292 ft 411 kts
2026-04-20 22:32 61.79378 25.19637 36570 ft 412 kts
2026-04-20 22:32 61.82239 25.20076 36841 ft 412 kts
2026-04-20 22:32 61.85106 25.20513 37104 ft 413 kts
2026-04-20 22:33 61.87974 25.20944 37357 ft 414 kts
2026-04-20 22:33 61.90850 25.21375 37605 ft 415 kts
2026-04-20 22:33 61.93730 25.21817 37853 ft 415 kts
2026-04-20 22:33 61.96617 25.22271 38096 ft 416 kts
2026-04-20 22:34 61.99504 25.22724 38290 ft 417 kts
2026-04-20 22:34 62.02402 25.23177 38338 ft 417 kts
2026-04-20 22:34 62.08256 25.24104 38343 ft 427 kts
2026-04-20 22:35 62.14218 25.25025 38341 ft 431 kts
2026-04-20 22:35 62.20192 25.25929 38346 ft 432 kts
2026-04-20 22:36 62.26146 25.26861 38334 ft 432 kts
2026-04-20 22:36 62.32136 25.27820 38338 ft 432 kts
2026-04-20 22:37 62.38077 25.28755 38331 ft 421 kts
2026-04-20 22:37 62.43884 25.29680 38337 ft 417 kts
2026-04-20 22:38 62.49709 25.30612 38338 ft 417 kts
2026-04-20 22:38 62.55448 25.31511 38345 ft 416 kts
2026-04-20 22:39 62.61234 25.32437 38346 ft 417 kts
2026-04-20 22:39 62.67016 25.33378 38359 ft 417 kts
2026-04-20 22:40 62.72803 25.34315 38360 ft 417 kts
2026-04-20 22:40 62.78593 25.35263 38367 ft 417 kts
2026-04-20 22:41 62.84383 25.36206 38367 ft 417 kts
2026-04-20 22:41 62.90176 25.37148 38372 ft 417 kts
2026-04-20 22:42 62.95976 25.38099 37827 ft 421 kts
2026-04-20 22:42 62.98890 25.38579 37338 ft 417 kts
2026-04-20 22:42 63.01761 25.39051 36873 ft 412 kts
2026-04-20 22:43 63.04608 25.39522 36396 ft 408 kts
2026-04-20 22:43 63.07425 25.39988 35923 ft 404 kts
2026-04-20 22:43 63.10212 25.40446 35441 ft 400 kts
2026-04-20 22:43 63.12974 25.40905 34979 ft 397 kts
2026-04-20 22:44 63.15721 25.41366 34502 ft 393 kts
2026-04-20 22:44 63.18433 25.41821 33989 ft 390 kts
2026-04-20 22:44 63.21124 25.42272 33534 ft 384 kts
2026-04-20 22:44 63.23770 25.42712 33081 ft 380 kts
2026-04-20 22:45 63.26392 25.43147 32625 ft 375 kts
2026-04-20 22:45 63.28979 25.43582 32180 ft 371 kts
2026-04-20 22:45 63.31532 25.44012 31756 ft 366 kts
2026-04-20 22:45 63.34059 25.44442 31327 ft 362 kts
2026-04-20 22:46 63.36565 25.44869 30919 ft 359 kts
2026-04-20 22:46 63.39037 25.45290 30505 ft 356 kts
2026-04-20 22:46 63.41496 25.45708 30054 ft 352 kts
2026-04-20 22:46 63.43921 25.46123 29673 ft 347 kts
2026-04-20 22:47 63.46315 25.46531 29288 ft 343 kts
2026-04-20 22:47 63.48652 25.46930 28916 ft 339 kts
2026-04-20 22:47 63.50990 25.47332 28549 ft 335 kts
2026-04-20 22:47 63.53295 25.47724 28198 ft 330 kts
2026-04-20 22:48 63.55569 25.48110 27826 ft 325 kts
2026-04-20 22:48 63.57813 25.48490 27467 ft 321 kts
2026-04-20 22:48 63.60019 25.48866 27116 ft 316 kts
2026-04-20 22:48 63.62196 25.49239 26764 ft 312 kts
2026-04-20 22:49 63.64356 25.49612 26418 ft 310 kts
2026-04-20 22:49 63.66504 25.49984 26054 ft 308 kts
2026-04-20 22:49 63.68634 25.50356 25683 ft 307 kts
2026-04-20 22:49 63.70756 25.50729 25323 ft 305 kts
2026-04-20 22:50 63.72863 25.51101 24952 ft 303 kts
2026-04-20 22:50 63.74961 25.51471 24581 ft 302 kts
2026-04-20 22:50 63.77048 25.51835 24201 ft 300 kts
2026-04-20 22:50 63.79124 25.52198 23799 ft 299 kts
2026-04-20 22:51 63.81188 25.52561 23394 ft 297 kts
2026-04-20 22:51 63.83243 25.52920 23006 ft 295 kts
2026-04-20 22:51 63.85279 25.53273 22659 ft 293 kts
2026-04-20 22:51 63.87310 25.53622 22295 ft 292 kts
2026-04-20 22:52 63.89330 25.53971 21940 ft 290 kts
2026-04-20 22:52 63.91338 25.54321 21582 ft 289 kts
2026-04-20 22:52 63.93336 25.54674 21236 ft 288 kts
2026-04-20 22:52 63.95328 25.55027 20876 ft 286 kts
2026-04-20 22:53 63.97309 25.55378 20527 ft 285 kts
2026-04-20 22:53 63.99284 25.55728 20183 ft 284 kts
2026-04-20 22:53 64.01252 25.56080 19841 ft 283 kts
2026-04-20 22:53 64.03207 25.56433 19498 ft 282 kts
2026-04-20 22:54 64.05158 25.56784 19156 ft 281 kts
2026-04-20 22:54 64.07103 25.57135 18820 ft 280 kts
2026-04-20 22:54 64.09037 25.57481 18457 ft 279 kts
2026-04-20 22:54 64.10968 25.57821 18102 ft 277 kts
2026-04-20 22:55 64.12887 25.58152 17779 ft 276 kts
2026-04-20 22:55 64.14832 25.58285 17453 ft 291 kts 356°
2026-04-20 22:55 64.16786 25.56739 17135 ft 305 kts 335°
2026-04-20 22:55 64.18620 25.54228 16812 ft 308 kts 332°
2026-04-20 22:56 64.20434 25.51645 16501 ft 307 kts 332°
2026-04-20 22:56 64.22252 25.49086 16186 ft 305 kts 335°
2026-04-20 22:56 64.24138 25.46830 15882 ft 314 kts 337°
2026-04-20 22:56 64.26128 25.44555 15575 ft 329 kts 337°
2026-04-20 22:57 64.28187 25.42221 15273 ft 331 kts 337°
2026-04-20 22:57 64.30258 25.39885 14971 ft 331 kts 337°
2026-04-20 22:57 64.32321 25.37566 14674 ft 330 kts 337°
2026-04-20 22:57 64.34454 25.35190 14378 ft 347 kts 337°
2026-04-20 22:58 64.36642 25.32766 14116 ft 350 kts 337°
2026-04-20 22:58 64.38838 25.30341 13841 ft 349 kts 337°
2026-04-20 22:58 64.41029 25.27928 13568 ft 348 kts 337°
2026-04-20 22:58 64.43214 25.25526 13298 ft 347 kts 337°
2026-04-20 22:59 64.45393 25.23134 13030 ft 346 kts 337°
2026-04-20 22:59 64.47566 25.20753 12765 ft 345 kts 337°
2026-04-20 22:59 64.49729 25.18388 12503 ft 343 kts 337°
2026-04-20 22:59 64.51886 25.16036 12240 ft 342 kts 337°
2026-04-20 23:00 64.54041 25.13689 11855 ft 341 kts 337°
2026-04-20 23:00 64.56191 25.11457 11397 ft 337 kts 342°
2026-04-20 23:00 64.58433 25.09957 10950 ft 334 kts 347°
2026-04-20 23:00 64.59913 25.09054 10643 ft 332 kts 347°
2026-04-20 23:01 64.62479 25.07509 10125 ft 330 kts 347°
2026-04-20 23:01 64.64696 25.06186 9639 ft 328 kts 347°
2026-04-20 23:01 64.66839 25.04417 9148 ft 328 kts 334°
2026-04-20 23:01 64.68756 25.01555 8665 ft 327 kts 327°
2026-04-20 23:02 64.70633 24.98570 8206 ft 325 kts 327°
2026-04-20 23:02 64.72498 24.95606 7728 ft 323 kts 327°
2026-04-20 23:02 64.74378 24.92751 7273 ft 320 kts 333°
2026-04-20 23:02 64.76467 24.91154 6837 ft 316 kts 353°
2026-04-20 23:03 64.78627 24.91296 6392 ft 302 kts
2026-04-20 23:03 64.80620 24.91994 6251 ft 278 kts
2026-04-20 23:03 64.82470 24.92637 6117 ft 262 kts
2026-04-20 23:03 64.84234 24.93255 5915 ft 252 kts
2026-04-20 23:04 64.85954 24.93857 5548 ft 248 kts
2026-04-20 23:04 64.87659 24.94451 5153 ft 247 kts
2026-04-20 23:04 64.89364 24.95042 4659 ft 249 kts
2026-04-20 23:04 64.91068 24.95631 4409 ft 247 kts
2026-04-20 23:05 64.92194 24.96021 4317 ft 247 kts
2026-04-20 23:05 64.93902 24.96614 3952 ft 246 kts
2026-04-20 23:05 64.95531 24.97186 3781 ft 228 kts
2026-04-20 23:05 64.97044 24.97723 3609 ft 214 kts
2026-04-20 23:06 64.98502 24.98240 3259 ft 210 kts
2026-04-20 23:06 64.99864 24.99248 2953 ft 203 kts 36°
2026-04-20 23:06 65.00667 25.01862 2916 ft 199 kts 71°
2026-04-20 23:06 65.00649 25.05053 2725 ft 197 kts 109°
2026-04-20 23:07 64.99995 25.07867 2496 ft 195 kts 121°
2026-04-20 23:07 64.99298 25.10602 2234 ft 194 kts 121°
2026-04-20 23:07 64.98609 25.13328 1963 ft 193 kts 121°
2026-04-20 23:07 64.97925 25.16037 1693 ft 189 kts 120°
2026-04-20 23:08 64.97272 25.18622 1431 ft 178 kts 120°
2026-04-20 23:08 64.96651 25.21079 1209 ft 172 kts 120°
2026-04-20 23:08 64.96063 25.23404 962 ft 155 kts 120°
2026-04-20 23:08 64.95538 25.25474 781 ft 140 kts 120°
2026-04-20 23:09 64.95054 25.27387 643 ft 133 kts 120°
2026-04-20 23:09 64.94584 25.29240 467 ft 131 kts 120°
2026-04-20 23:09 64.94118 25.31070 307 ft 130 kts 121°
2026-04-20 23:09 64.93659 25.32892 135 ft 129 kts 120°
2026-04-20 23:10 64.93222 25.34639 52 ft 111 kts 121°
2026-04-20 23:10 64.92898 25.35893 53 ft 66 kts 121°
2026-04-20 23:10 64.92807 25.36280 52 ft 14 kts 96°
2026-04-20 23:10 64.92860 25.36459 53 ft 15 kts 33°
2026-04-20 23:11 64.92914 25.36559 50 ft 9 kts 57°
2026-04-20 23:11 64.92890 25.36693 52 ft 10 kts 122°
2026-04-20 23:11 64.92850 25.36851 51 ft 13 kts 121°
2026-04-20 23:11 64.92800 25.37057 51 ft 16 kts 118°
2026-04-20 23:12 64.92736 25.37308 46 ft 17 kts 122°
2026-04-20 23:12 64.92703 25.37433 47 ft 8 kts 113°
2026-04-20 23:12 64.92739 25.37519 48 ft 8 kts 30°
2026-04-20 23:12 64.92759 25.37547 48 ft 0 kts 31°
2026-04-20 23:13 64.92769 25.37561 47 ft 0 kts 31°